Location: Ravensburg
(47.7866°N, 9.6124°E)
Time: 18:35:48
(UTC+01:00)

AO-85 - Visible Passes

Search period start: 07 March 2026 00:00
Search period end: 17 March 2026 00:00
Orbit: 507 x 687 km, 64.8° (Epoch: 7 March)

Date Brightness Start Highest point End Pass type
(mag) Time Alt. Az. Time Alt. Az. Time Alt. Az.
8 Mar ? 05:33:55 10° SSE 05:36:41 18° ESE 05:39:24 10° ENE visible
9 Mar ? 05:43:03 10° S 05:46:39 30° ESE 05:50:07 10° ENE visible
10 Mar ? 05:52:41 10° SSW 05:56:39 54° ESE 06:00:29 10° NE visible
11 Mar ? 04:26:34 10° SE 04:27:55 11° ESE 04:29:14 10° E visible
11 Mar ? 06:02:40 10° SW 06:06:43 85° NW 06:10:39 10° NE visible
12 Mar ? 04:34:46 10° SSE 04:37:46 20° ESE 04:40:41 10° ENE visible
13 Mar ? 04:44:55 15° S 04:47:41 34° ESE 04:51:16 10° NE visible
14 Mar ? 04:55:20 23° SSW 04:57:39 62° SE 05:01:31 10° NE visible
15 Mar ? 03:28:55 13° ESE 03:28:55 13° ESE 03:30:40 10° E visible
15 Mar ? 05:05:36 27° SW 05:07:42 76° NW 05:11:36 10° NE visible
16 Mar ? 03:39:04 22° ESE 03:39:04 22° ESE 03:41:45 10° ENE visible
16 Mar ? 05:15:45 23° WSW 05:17:48 44° NW 05:21:33 10° NNE visible
